| time (UTC) | temp F | wind direction | speed knots | gust knots | rain 1hr in | rain 24hr in | rain mn in | humidity % | barometer mb |
| 20260503022530 | 67 | 153 | 0.9 | 3.5 | 0.00 | 0.00 | 0.00 | 38 | 1021.3 |
| 20260503022030 | 67 | 141 | 0.9 | 5.2 | 0.00 | 0.00 | 0.00 | 37 | 1021.2 |
| 20260503021539 | 67 | 147 | 0.0 | 4.3 | 0.00 | 0.00 | 0.00 | 37 | 1021.2 |
| 20260503021030 | 67 | 174 | 1.7 | 4.3 | 0.00 | 0.00 | 0.00 | 36 | 1021.2 |
| 20260503020530 | 68 | 105 | 2.6 | 5.2 | 0.00 | 0.00 | 0.00 | 36 | 1021.3 |
| 20260503020029 | 68 | 112 | 2.6 | 5.2 | 0.00 | 0.00 | 0.00 | 34 | 1021.1 |
| 20260503015028 | 68 | 81 | 1.7 | 5.2 | 0.00 | 0.00 | 0.00 | 34 | 1020.9 |
| 20260503014528 | 68 | 148 | 1.7 | 5.2 | 0.00 | 0.00 | 0.00 | 34 | 1021.0 |
| 20260503014028 | 69 | 122 | 1.7 | 5.2 | 0.00 | 0.00 | 0.00 | 34 | 1021.0 |
| 20260503013528 | 69 | 90 | 1.7 | 7.0 | 0.00 | 0.00 | 0.00 | 33 | 1020.9 |
| 20260503013028 | 69 | 105 | 2.6 | 7.0 | 0.00 | 0.00 | 0.00 | 32 | 1021.0 |
| 20260503012528 | 70 | 131 | 1.7 | 7.0 | 0.00 | 0.00 | 0.00 | 32 | 1021.0 |
| 20260503012028 | 70 | 117 | 2.6 | 8.7 | 0.00 | 0.00 | 0.00 | 31 | 1020.9 |
| 20260503011529 | 70 | 71 | 2.6 | 8.7 | 0.00 | 0.00 | 0.00 | 31 | 1020.9 |
| 20260503011027 | 70 | 86 | 3.5 | 8.7 | 0.00 | 0.00 | 0.00 | 30 | 1020.9 |
| 20260503010527 | 71 | 52 | 1.7 | 7.8 | 0.00 | 0.00 | 0.00 | 29 | 1020.9 |
| 20260503010027 | 71 | 68 | 2.6 | 8.7 | 0.00 | 0.00 | 0.00 | 28 | 1020.7 |
| 20260503005027 | 71 | 54 | 3.5 | 8.7 | 0.00 | 0.00 | 0.00 | 27 | 1020.7 |
| 20260503004527 | 71 | 67 | 2.6 | 9.6 | 0.00 | 0.00 | 0.00 | 28 | 1020.6 |
| 20260503004029 | 71 | 95 | 3.5 | 6.1 | 0.00 | 0.00 | 0.00 | 28 | 1020.7 |
| 20260503003527 | 71 | 75 | 2.6 | 5.2 | 0.00 | 0.00 | 0.00 | 27 | 1020.7 |
| 20260503003026 | 71 | 52 | 1.7 | 6.1 | 0.00 | 0.00 | 0.00 | 27 | 1020.7 |
| 20260503002526 | 71 | 106 | 1.7 | 5.2 | 0.00 | 0.00 | 0.00 | 26 | 1020.7 |
| 20260503002027 | 72 | 165 | 1.7 | 5.2 | 0.00 | 0.00 | 0.00 | 26 | 1020.7 |
| 20260503001526 | 72 | 102 | 2.6 | 6.1 | 0.00 | 0.00 | 0.00 | 26 | 1020.6 |
| 20260503001025 | 72 | 165 | 3.5 | 7.8 | 0.00 | 0.00 | 0.00 | 26 | 1020.7 |
| 20260503000524 | 72 | 142 | 0.9 | 5.2 | 0.00 | 0.00 | 0.00 | 25 | 1020.7 |
| 20260503000032 | 72 | 69 | 0.9 | 5.2 | 0.00 | 0.00 | 0.00 | 25 | 1020.6 |
| 20260502235023 | 72 | 139 | 1.7 | 4.3 | 0.00 | 0.00 | 0.00 | 26 | 1020.6 |
| 20260502234524 | 72 | 84 | 1.7 | 8.7 | 0.00 | 0.00 | 0.00 | 27 | 1020.5 |
| 20260502234023 | 72 | 122 | 3.5 | 8.7 | 0.00 | 0.00 | 0.00 | 26 | 1020.5 |
| 20260502233523 | 72 | 75 | 3.5 | 7.0 | 0.00 | 0.00 | 0.00 | 27 | 1020.5 |
| 20260502233022 | 72 | 110 | 2.6 | 7.0 | 0.00 | 0.00 | 0.00 | 27 | 1020.6 |
| 20260502232520 | 72 | 132 | 2.6 | 7.8 | 0.00 | 0.00 | 0.00 | 27 | 1020.6 |
| 20260502232021 | 72 | 79 | 2.6 | 7.8 | 0.00 | 0.00 | 0.00 | 27 | 1020.7 |
| 20260502231523 | 72 | 127 | 2.6 | 5.2 | 0.00 | 0.00 | 0.00 | 27 | 1020.7 |
| 20260502231023 | 72 | 122 | 2.6 | 7.0 | 0.00 | 0.00 | 0.00 | 26 | 1020.7 |
| 20260502230521 | 72 | 152 | 3.5 | 9.6 | 0.00 | 0.00 | 0.00 | 26 | 1020.8 |
| 20260502230020 | 73 | 88 | 5.2 | 9.6 | 0.00 | 0.00 | 0.00 | 25 | 1020.7 |
| 20260502225022 | 73 | 52 | 5.2 | 10.4 | 0.00 | 0.00 | 0.00 | 25 | 1020.8 |
| 20260502224523 | 73 | 107 | 7.8 | 10.4 | 0.00 | 0.00 | 0.00 | 25 | 1020.9 |
| 20260502224022 | 73 | 83 | 5.2 | 10.4 | 0.00 | 0.00 | 0.00 | 26 | 1021.0 |
| 20260502223522 | 73 | 189 | 1.7 | 5.2 | 0.00 | 0.00 | 0.00 | 25 | 1021.0 |
| 20260502223020 | 73 | 186 | 1.7 | 4.3 | 0.00 | 0.00 | 0.00 | 25 | 1021.1 |
| 20260502222520 | 72 | 220 | 2.6 | 5.2 | 0.00 | 0.00 | 0.00 | 25 | 1021.2 |
| 20260502222018 | 72 | 127 | 0.9 | 5.2 | 0.00 | 0.00 | 0.00 | 25 | 1021.2 |
| 20260502221518 | 71 | 58 | 1.7 | 5.2 | 0.00 | 0.00 | 0.00 | 26 | 1021.3 |
| 20260502221018 | 71 | 237 | 1.7 | 5.2 | 0.00 | 0.00 | 0.00 | 27 | 1021.4 |
| 20260502220518 | 71 | 135 | 1.7 | 7.0 | 0.00 | 0.00 | 0.00 | 27 | 1021.4 |
| 20260502220017 | 72 | 142 | 3.5 | 8.7 | 0.00 | 0.00 | 0.00 | 26 | 1021.5 |
| 20260502215017 | 72 | 77 | 2.6 | 7.8 | 0.00 | 0.00 | 0.00 | 26 | 1021.6 |
| 20260502214527 | 72 | 210 | 3.5 | 7.8 | 0.00 | 0.00 | 0.00 | 26 | 1021.6 |
| 20260502214017 | 71 | 266 | 3.5 | 7.8 | 0.00 | 0.00 | 0.00 | 26 | 1021.7 |
| 20260502213516 | 71 | 163 | 3.5 | 7.8 | 0.00 | 0.00 | 0.00 | 26 | 1021.8 |
| 20260502213016 | 72 | 117 | 4.3 | 7.8 | 0.00 | 0.00 | 0.00 | 26 | 1021.9 |
| 20260502212515 | 71 | 75 | 2.6 | 7.8 | 0.00 | 0.00 | 0.00 | 27 | 1021.9 |
| 20260502212020 | 71 | 113 | 4.3 | 10.4 | 0.00 | 0.00 | 0.00 | 27 | 1021.9 |
| 20260502211527 | 72 | 110 | 4.3 | 10.4 | 0.00 | 0.00 | 0.00 | 27 | 1022.2 |
| 20260502211014 | 73 | 161 | 3.5 | 8.7 | 0.00 | 0.00 | 0.00 | 26 | 1022.1 |
| 20260502210514 | 73 | 215 | 1.7 | 5.2 | 0.00 | 0.00 | 0.00 | 26 | 1022.2 |
| 20260502210013 | 70 | 54 | 1.7 | 4.3 | 0.00 | 0.00 | 0.00 | 29 | 1022.2 |
| 20260502205012 | 70 | 221 | 2.6 | 5.2 | 0.00 | 0.00 | 0.00 | 29 | 1022.4 |
| 20260502204512 | 70 | 179 | 1.7 | 9.6 | 0.00 | 0.00 | 0.00 | 28 | 1022.5 |
| 20260502204012 | 71 | 149 | 3.5 | 9.6 | 0.00 | 0.00 | 0.00 | 27 | 1022.4 |
| 20260502203511 | 71 | 133 | 2.6 | 6.1 | 0.00 | 0.00 | 0.00 | 28 | 1022.6 |
| 20260502203011 | 70 | 277 | 0.9 | 7.8 | 0.00 | 0.00 | 0.00 | 29 | 1022.7 |
| 20260502202509 | 69 | 171 | 1.7 | 7.8 | 0.00 | 0.00 | 0.00 | 29 | 1022.7 |
| 20260502202009 | 70 | 182 | 5.2 | 7.8 | 0.00 | 0.00 | 0.00 | 29 | 1022.7 |
| 20260502201509 | 70 | 60 | 2.6 | 12.2 | 0.00 | 0.00 | 0.00 | 29 | 1022.7 |
| 20260502201009 | 70 | 58 | 7.0 | 12.2 | 0.00 | 0.00 | 0.00 | 28 | 1022.9 |
| 20260502200507 | 70 | 204 | 3.5 | 9.6 | 0.00 | 0.00 | 0.00 | 29 | 1022.9 |
| 20260502200007 | 70 | 135 | 3.5 | 8.7 | 0.00 | 0.00 | 0.00 | 29 | 1023.0 |
| 20260502195004 | 70 | 102 | 2.6 | 7.0 | 0.00 | 0.00 | 0.00 | 30 | 1023.2 |
| 20260502194504 | 69 | 261 | 0.9 | 7.0 | 0.00 | 0.00 | 0.00 | 28 | 1023.3 |
| 20260502194005 | 70 | 62 | 1.7 | 7.0 | 0.00 | 0.00 | 0.00 | 28 | 1023.3 |
| 20260502193503 | 70 | 80 | 2.6 | 7.0 | 0.00 | 0.00 | 0.00 | 28 | 1023.3 |
| 20260502193003 | 70 | 158 | 3.5 | 7.0 | 0.00 | 0.00 | 0.00 | 29 | 1023.4 |
| 20260502192503 | 70 | 205 | 2.6 | 7.0 | 0.00 | 0.00 | 0.00 | 28 | 1023.5 |
| 20260502192002 | 70 | 103 | 2.6 | 9.6 | 0.00 | 0.00 | 0.00 | 28 | 1023.5 |
| 20260502191503 | 70 | 56 | 3.5 | 9.6 | 0.00 | 0.00 | 0.00 | 29 | 1023.7 |
| 20260502191002 | 70 | 134 | 2.6 | 10.4 | 0.00 | 0.00 | 0.00 | 29 | 1023.7 |
| 20260502190501 | 70 | 73 | 6.1 | 10.4 | 0.00 | 0.00 | 0.00 | 29 | 1023.7 |
| 20260502190108 | 70 | 56 | 1.7 | 7.0 | 0.00 | 0.00 | 0.00 | 28 | 1023.8 |
| 20260502185059 | 70 | 58 | 2.6 | 8.7 | 0.00 | 0.00 | 0.00 | 28 | 1024.0 |
| 20260502184601 | 71 | 89 | 5.2 | 8.7 | 0.00 | 0.00 | 0.00 | 28 | 1024.2 |
| 20260502184058 | 71 | 27 | 4.3 | 7.8 | 0.00 | 0.00 | 0.00 | 28 | 1024.1 |
| 20260502183556 | 70 | 38 | 1.7 | 7.0 | 0.00 | 0.00 | 0.00 | 29 | 1024.1 |
| 20260502183055 | 69 | 45 | 3.5 | 7.0 | 0.00 | 0.00 | 0.00 | 30 | 1024.2 |
| 20260502182554 | 68 | 41 | 1.7 | 6.1 | 0.00 | 0.00 | 0.00 | 31 | 1024.3 |
| 20260502182058 | 68 | 235 | 2.6 | 7.8 | 0.00 | 0.00 | 0.00 | 31 | 1024.3 |
| 20260502181556 | 68 | 225 | 3.5 | 7.8 | 0.00 | 0.04 | 0.00 | 31 | 1024.4 |
| 20260502181053 | 68 | 54 | 2.6 | 7.8 | 0.00 | 0.04 | 0.00 | 31 | 1024.5 |
| 20260502180554 | 67 | 122 | 2.6 | 7.8 | 0.00 | 0.04 | 0.00 | 32 | 1024.4 |
| 20260502180119 | 67 | 161 | 3.5 | 8.7 | 0.00 | 0.04 | 0.00 | 34 | 1024.4 |
| 20260502164051 | 66 | 37 | 2.6 | 7.8 | 0.00 | 0.23 | 0.00 | 34 | 1025.1 |
| 20260502163550 | 66 | 37 | 2.6 | 8.7 | 0.00 | 0.23 | 0.00 | 35 | 1025.1 |
| 20260502163049 | 65 | 66 | 2.6 | 8.7 | 0.00 | 0.23 | 0.00 | 35 | 1025.1 |
| 20260502162549 | 65 | 187 | 0.9 | 9.6 | 0.00 | 0.23 | 0.00 | 36 | 1025.1 |
| 20260502162049 | 65 | 58 | 5.2 | 9.6 | 0.00 | 0.23 | 0.00 | 36 | 1025.1 |
| 20260502161548 | 65 | 71 | 3.5 | 7.8 | 0.00 | 0.62 | 0.00 | 36 | 1025.2 |
| 20260502161046 | 65 | 183 | 2.6 | 4.3 | 0.00 | 0.62 | 0.00 | 37 | 1025.2 |
| 20260502160546 | 65 | 36 | 0.0 | 5.2 | 0.00 | 0.62 | 0.00 | 38 | 1025.2 |
| 20260502152040 | 62 | 94 | 2.6 | 6.1 | 0.00 | 0.62 | 0.00 | 42 | 1025.4 |
| 20260502151537 | 62 | 195 | 1.7 | 4.3 | 0.00 | 0.62 | 0.00 | 41 | 1025.4 |
| 20260502151037 | 62 | 161 | 0.9 | 3.5 | 0.00 | 0.62 | 0.00 | 41 | 1025.4 |
| 20260502150537 | 62 | 112 | 2.6 | 3.5 | 0.00 | 0.62 | 0.00 | 40 | 1025.4 |
| 20260502130523 | 52 | 122 | 0.0 | 1.7 | 0.00 | 0.79 | 0.00 | 63 | 1024.6 |
| 20260502123513 | 51 | 117 | 0.9 | 2.6 | 0.00 | 0.79 | 0.00 | 64 | 1024.3 |
| 20260502123013 | 51 | 117 | 0.0 | 0.0 | 0.00 | 0.79 | 0.00 | 64 | 1024.2 |
| 20260502122514 | 51 | 117 | 0.0 | 0.9 | 0.00 | 0.79 | 0.00 | 64 | 1024.1 |
| 20260502122015 | 51 | 117 | 0.0 | 0.9 | 0.00 | 0.79 | 0.00 | 64 | 1024.1 |
| 20260502121512 | 51 | 117 | 0.0 | 0.0 | 0.00 | 0.79 | 0.00 | 64 | 1024.1 |
| 20260502121012 | 51 | 117 | 0.0 | 0.9 | 0.00 | 0.79 | 0.00 | 64 | 1024.0 |
| 20260502120511 | 51 | 117 | 0.0 | 1.7 | 0.00 | 0.79 | 0.00 | 64 | 1024.0 |
| 20260502115010 | 51 | 117 | 0.0 | 0.9 | 0.00 | 0.79 | 0.00 | 64 | 1023.9 |
| 20260502114507 | 51 | 117 | 0.0 | 0.9 | 0.00 | 0.79 | 0.00 | 64 | 1023.9 |
| 20260502114007 | 51 | 117 | 0.0 | 0.9 | 0.00 | 0.79 | 0.00 | 64 | 1023.9 |
| 20260502113506 | 51 | 117 | 0.0 | 1.7 | 0.00 | 0.79 | 0.00 | 64 | 1023.9 |
| 20260502113013 | 51 | 117 | 0.0 | 1.7 | 0.00 | 0.79 | 0.00 | 64 | 1023.9 |
| 20260502112506 | 51 | 117 | 0.0 | 1.7 | 0.00 | 0.79 | 0.00 | 65 | 1023.8 |
| 20260502112006 | 50 | 117 | 0.9 | 1.7 | 0.00 | 0.79 | 0.00 | 65 | 1023.8 |
| 20260502111505 | 50 | 117 | 0.0 | 2.6 | 0.00 | 0.79 | 0.00 | 64 | 1023.9 |
| 20260502111005 | 50 | 117 | 0.0 | 2.6 | 0.00 | 0.79 | 0.00 | 64 | 1023.9 |
| 20260502110504 | 51 | 117 | 0.9 | 2.6 | 0.00 | 0.79 | 0.00 | 64 | 1023.9 |
| 20260502110004 | 51 | 113 | 0.0 | 1.7 | 0.00 | 0.79 | 0.00 | 64 | 1023.9 |
| 20260502105008 | 51 | 101 | 0.9 | 1.7 | 0.00 | 0.79 | 0.00 | 64 | 1023.9 |
| 20260502104507 | 51 | 100 | 0.0 | 0.9 | 0.00 | 0.79 | 0.00 | 64 | 1023.8 |
| 20260502104006 | 51 | 100 | 0.0 | 0.9 | 0.00 | 0.79 | 0.00 | 64 | 1023.9 |
| 20260502103506 | 51 | 100 | 0.0 | 0.9 | 0.00 | 0.79 | 0.00 | 64 | 1023.7 |
| 20260502103006 | 51 | 100 | 0.0 | 1.7 | 0.00 | 0.79 | 0.00 | 64 | 1023.8 |
| 20260502102505 | 50 | 100 | 0.9 | 2.6 | 0.00 | 0.79 | 0.00 | 64 | 1023.6 |
| 20260502102004 | 51 | 103 | 0.0 | 1.7 | 0.00 | 0.79 | 0.00 | 64 | 1023.6 |
| 20260502101504 | 51 | 103 | 0.0 | 0.9 | 0.00 | 0.79 | 0.79 | 64 | 1023.6 |
| 20260502101005 | 51 | 103 | 0.0 | 0.0 | 0.00 | 0.79 | 0.79 | 64 | 1023.6 |
| 20260502100503 | 50 | 103 | 0.0 | 0.0 | 0.00 | 0.79 | 0.79 | 64 | 1023.7 |
| 20260502091058 | 49 | 104 | 0.0 | 0.9 | 0.00 | 0.79 | 0.79 | 65 | 1023.0 |
| 20260502090555 | 49 | 104 | 0.0 | 0.9 | 0.00 | 0.79 | 0.79 | 65 | 1022.9 |
| 20260502071043 | 51 | 109 | 0.0 | 0.0 | 0.00 | 0.79 | 0.79 | 64 | 1022.2 |
| 20260502070543 | 51 | 109 | 0.0 | 0.0 | 0.00 | 0.79 | 0.79 | 64 | 1022.2 |
| 20260502070042 | 51 | 109 | 0.0 | 0.0 | 0.00 | 0.79 | 0.79 | 64 | 1022.1 |
| 20260502065046 | 52 | 109 | 0.0 | 0.0 | 0.00 | 0.79 | 0.79 | 63 | 1022.2 |
| 20260502064546 | 52 | 109 | 0.0 | 0.0 | 0.00 | 0.79 | 0.79 | 63 | 1022.2 |
| 20260502064044 | 52 | 109 | 0.0 | 0.0 | 0.00 | 0.79 | 0.79 | 62 | 1022.1 |
| 20260502063544 | 52 | 109 | 0.0 | 0.0 | 0.00 | 0.79 | 0.79 | 62 | 1022.1 |
| 20260502063043 | 52 | 109 | 0.0 | 0.0 | 0.00 | 0.79 | 0.79 | 61 | 1022.1 |
| 20260502062543 | 52 | 109 | 0.0 | 0.0 | 0.00 | 0.79 | 0.79 | 61 | 1022.1 |
| 20260502062043 | 52 | 109 | 0.0 | 0.9 | 0.00 | 0.79 | 0.79 | 61 | 1022.1 |
| 20260502061542 | 53 | 109 | 0.0 | 1.7 | 0.00 | 0.79 | 0.79 | 60 | 1022.1 |
| 20260502061041 | 53 | 109 | 0.0 | 1.7 | 0.00 | 0.79 | 0.79 | 60 | 1022.0 |
| 20260502060540 | 53 | 109 | 0.9 | 1.7 | 0.00 | 0.79 | 0.79 | 60 | 1021.9 |
| 20260502060040 | 53 | 109 | 0.0 | 1.7 | 0.00 | 0.79 | 0.79 | 60 | 1022.0 |
| 20260502055036 | 54 | 109 | 0.0 | 1.7 | 0.00 | 0.79 | 0.79 | 59 | 1022.1 |
| 20260502054535 | 54 | 109 | 0.0 | 1.7 | 0.00 | 0.79 | 0.79 | 59 | 1022.1 |
| 20260502054034 | 54 | 109 | 0.0 | 1.7 | 0.00 | 0.79 | 0.79 | 58 | 1021.9 |
| 20260502053535 | 54 | 109 | 0.0 | 0.9 | 0.00 | 0.79 | 0.79 | 58 | 1022.0 |
| 20260502053037 | 54 | 109 | 0.0 | 1.7 | 0.00 | 0.79 | 0.79 | 57 | 1022.0 |
| 20260502052532 | 54 | 109 | 0.0 | 1.7 | 0.00 | 0.79 | 0.79 | 56 | 1021.9 |
| 20260502052036 | 54 | 109 | 0.0 | 1.7 | 0.00 | 0.79 | 0.79 | 56 | 1021.9 |
| 20260502051535 | 55 | 108 | 0.0 | 1.7 | 0.00 | 0.79 | 0.79 | 55 | 1021.9 |
| 20260502051031 | 55 | 108 | 0.9 | 3.5 | 0.00 | 0.79 | 0.79 | 55 | 1022.0 |
| 20260502050530 | 55 | 108 | 1.7 | 3.5 | 0.00 | 0.79 | 0.79 | 55 | 1021.8 |
| 20260502050030 | 55 | 80 | 0.9 | 3.5 | 0.00 | 0.79 | 0.79 | 55 | 1021.8 |
| 20260502045034 | 55 | 112 | 0.0 | 1.7 | 0.00 | 0.79 | 0.79 | 57 | 1021.8 |
| 20260502044534 | 55 | 112 | 0.0 | 1.7 | 0.00 | 0.79 | 0.79 | 57 | 1021.8 |
| 20260502044034 | 55 | 112 | 0.0 | 1.7 | 0.00 | 0.79 | 0.79 | 56 | 1021.7 |
| 20260502043532 | 55 | 112 | 0.0 | 2.6 | 0.00 | 0.79 | 0.79 | 56 | 1021.6 |
| 20260502043032 | 56 | 112 | 0.0 | 5.2 | 0.00 | 0.79 | 0.79 | 56 | 1021.4 |
| 20260502042531 | 56 | 122 | 1.7 | 5.2 | 0.00 | 0.79 | 0.79 | 56 | 1021.4 |
| 20260502042031 | 56 | 59 | 0.9 | 4.3 | 0.00 | 0.79 | 0.79 | 56 | 1021.3 |
| 20260502041535 | 56 | 117 | 1.7 | 5.2 | 0.00 | 0.79 | 0.79 | 56 | 1021.3 |
| 20260502041030 | 56 | 112 | 1.7 | 5.2 | 0.00 | 0.79 | 0.79 | 56 | 1021.2 |
| 20260502040530 | 56 | 95 | 1.7 | 4.3 | 0.00 | 0.79 | 0.79 | 57 | 1021.1 |
| 20260502040029 | 57 | 122 | 1.7 | 4.3 | 0.00 | 0.79 | 0.79 | 56 | 1021.0 |
| 20260502035022 | 57 | 106 | 0.9 | 3.5 | 0.00 | 0.79 | 0.79 | 55 | 1021.0 |
| 20260502034527 | 57 | 108 | 0.0 | 3.5 | 0.00 | 0.79 | 0.79 | 55 | 1020.9 |
| 20260502034023 | 57 | 58 | 0.9 | 2.6 | 0.00 | 0.79 | 0.79 | 54 | 1020.8 |
| 20260502033520 | 57 | 57 | 0.0 | 3.5 | 0.00 | 0.79 | 0.79 | 54 | 1020.8 |
| 20260502033121 | 57 | 56 | 1.7 | 4.3 | 0.00 | 0.79 | 0.79 | 53 | 1020.8 |
| 20260502032523 | 57 | 109 | 1.7 | 4.3 | 0.00 | 0.79 | 0.79 | 53 | 1020.8 |
| 20260502032018 | 57 | 55 | 1.7 | 8.7 | 0.00 | 0.79 | 0.79 | 53 | 1020.7 |
| 20260502031518 | 57 | 62 | 5.2 | 8.7 | 0.00 | 0.79 | 0.79 | 53 | 1020.6 |
| 20260502031018 | 58 | 62 | 3.5 | 9.6 | 0.00 | 0.79 | 0.79 | 53 | 1020.6 |
| 20260502030519 | 58 | 71 | 4.3 | 9.6 | 0.00 | 0.79 | 0.79 | 53 | 1020.5 |
| 20260502030017 | 58 | 109 | 2.6 | 6.1 | 0.00 | 0.79 | 0.79 | 54 | 1020.4 |
| 20260502025013 | 58 | 62 | 1.7 | 7.0 | 0.00 | 0.79 | 0.79 | 55 | 1020.2 |
| 20260502024514 | 58 | 61 | 2.6 | 7.0 | 0.00 | 0.79 | 0.79 | 55 | 1020.1 |
| 20260502024015 | 58 | 56 | 2.6 | 8.7 | 0.00 | 0.79 | 0.79 | 55 | 1020.1 |
| 20260502023513 | 58 | 52 | 4.3 | 8.7 | 0.00 | 0.79 | 0.79 | 55 | 1020.0 |
| 20260502023012 | 58 | 58 | 3.5 | 7.0 | 0.00 | 0.79 | 0.79 | 56 | 1020.0 |